Location: Unspecified
(43.4680°N, 87.1740°E)
Time: 17:21:53
(UTC+00:00)

ISS - Pass Details

Date: 28 September 2021
Orbit: 417 x 423 km, 51.6° (Epoch: 25 October)

Event Time Altitude Azimuth Distance (km) Brightness Sun altitude
Rises 14:23:21 0° 304° (NW) 2,368 1.3 -26.5°
Reaches altitude 10° 14:25:31 10° 311° (NW) 1,503 0.0 -26.9°
Enters shadow 14:26:52 21° 322° (NW) 1,008 -1.2 -27.1°
